[[{"header":{"parameterUnit":"m.s-1","parameterCategory":1,"la1":30.2991,"la2":30.254,"lo1":-89.0895,"lo2":-89.0444,"dy":0.0017,"dx":0.0017,"nx":28,"ny":28,"refTime":"2023-07-24T09:00:00:Z","depth":0,"parameterNumber":2,"parameterNumberName":"U-component_of_WINDS"},"data":[0,0,0,0,0,0,0,0,0,0,0,0,0,0,0,0,0,0,0,0,0,0,0,0,0,0,0,0,0,0,0,0,0,0,0,0,0,0,0,0,0,0,0,0,0,0,0,0,0,0,0,0,0,0,0,0,0,0,1.8198,1.8199,0,1.827,1.827,1.8271,1.8282,1.8282,1.8281,1.8281,1.8352,1.8354,1.8356,0,0,0,0,0,0,0,0,0,0,0,0,0,1.8067,1.8069,1.8198,1.8199,1.8199,1.8269,1.827,1.8271,1.8283,1.8282,1.8281,1.828,1.8351,1.8354,1.8357,0,0,0,0,0,0,0,0,0,0,0,0,0,1.8129,1.807,1.8197,1.8214,1.8216,1.8269,1.827,1.8272,1.8283,1.8282,1.8281,1.828,1.835,1.8353,1.8357,1.8399,0,0,1.8368,1.837,0,0,0,0,0,0,0,0,1.8126,1.8134,1.821,1.8213,1.8215,1.8266,1.825,1.8314,1.8283,1.8257,1.8281,1.8279,1.8324,1.833,1.8345,1.8402,1.8405,1.8369,1.8371,1.8373,1.8374,0,0,0,0,0,0,0,1.8121,1.8131,1.8226,1.8211,1.8214,1.8216,1.8224,1.8262,1.8295,1.8259,1.826,1.8269,1.8325,1.8341,1.8347,1.8406,1.8369,1.8372,1.8374,1.8376,1.85,1.8501,0,0,0,0,0,0,1.8115,1.8127,1.8224,1.8228,1.8167,1.8219,1.8228,1.8251,1.8294,1.83,1.827,1.8269,1.8336,1.8342,1.8349,1.84,1.8373,1.8376,1.8378,1.8499,1.85,1.8501,0,0,0,0,0,0,1.8112,1.8123,1.8221,1.8178,1.8191,1.8222,1.8248,1.8253,1.8269,1.8302,1.8308,1.8281,1.8335,1.8344,1.8386,1.8402,1.8378,1.8381,1.8497,1.8499,1.85,1.8502,0,0,0,0,0,0,1.8108,1.8122,1.8139,1.8179,1.8193,1.8258,1.8249,1.8255,1.8276,1.8276,1.8314,1.832,1.8335,1.8381,1.839,1.8407,1.8384,1.8496,1.8498,1.85,1.8501,1.8504,1.8506,0,0,0,0,0,1.8103,1.8137,1.814,1.8152,1.8215,1.8259,1.8267,1.8285,1.8277,1.8294,1.8315,1.8318,1.8399,1.8385,1.8395,1.8414,1.8495,1.8497,1.85,1.8499,1.8503,1.8506,0,0,0,0,0,0,1.8098,1.8142,1.8146,1.8194,1.8222,1.826,1.8282,1.8288,1.8319,1.8317,1.8337,1.8346,1.8387,1.8405,1.8388,1.8456,1.8446,1.8451,1.8443,1.8446,1.8449,1.8443,1.8387,0,0,0,0,0,1.8102,1.8135,1.8171,1.8209,1.8224,1.825,1.827,1.8281,1.8311,1.8323,1.8348,1.8376,1.8408,1.8428,1.8459,1.8504,1.8511,1.8521,1.8524,1.8526,1.8529,1.8552,1.8557,1.8509,1.8509,1.8509,0,0,1.8111,1.814,1.8159,1.8209,1.8233,1.8264,1.8261,1.8295,1.8318,1.8328,1.837,1.8388,1.8421,1.8464,1.8484,1.848,1.8544,1.8529,1.853,1.8533,1.8555,1.856,1.8564,1.851,1.851,1.851,0,0,1.8144,1.817,1.8204,1.8227,1.8263,1.828,1.8288,1.8326,1.8338,1.838,1.8388,1.8416,1.847,1.8493,1.8512,1.8552,1.8555,1.8561,1.8575,1.8597,1.8601,1.8604,1.8617,1.8621,1.8565,1.8565,1.8565,0,1.8151,1.8201,1.822,1.8254,1.8275,1.8286,1.8319,1.8341,1.8385,1.8398,1.8394,1.8462,1.8485,1.8532,1.8542,1.8557,1.8566,1.8557,1.8599,1.8602,1.8606,1.8618,1.8623,1.8565,1.8565,1.8565,1.8565,0,1.8206,1.824,1.8263,1.8305,1.8329,1.8362,1.8386,1.8407,1.8416,1.8433,1.8475,1.8503,1.8539,1.8551,1.856,1.86,1.8596,1.8595,1.8585,1.861,1.8622,1.8627,1.8566,1.8566,1.8565,1.8565,0,0,1.8238,1.829,1.8298,1.8316,1.8356,1.8382,1.8415,1.8452,1.8469,1.8498,1.8526,1.8571,1.857,1.8591,1.8603,1.8622,1.865,1.8619,1.862,1.8622,1.8694,1.8693,1.8699,1.8653,1.8654,1.8655,1.869,0,1.8274,1.8335,1.8352,1.8403,1.8433,1.8444,1.8472,1.8499,1.8516,1.8544,1.8562,1.8593,1.859,1.8603,1.8623,1.8643,1.8665,1.8641,1.8677,1.8678,1.8668,1.8705,1.8705,1.8737,1.8695,1.8696,1.8697,0,1.8325,1.8356,1.8409,1.8444,1.8457,1.8483,1.8516,1.8543,1.8573,1.8584,1.8607,1.8616,1.865,1.8639,1.8685,1.8668,1.8684,1.8696,1.8698,1.8701,1.8688,1.8708,1.8748,1.8752,1.8704,1.8704,1.8703,0,1.8341,1.8395,1.8434,1.845,1.8492,1.8509,1.8527,1.8556,1.8576,1.8605,1.8618,1.8651,1.8668,1.8692,1.871,1.8701,1.8753,1.8745,1.8762,1.8761,1.8772,1.877,1.8813,1.8784,1.8784,1.8784,1.8784,0,1.8379,1.8411,1.8441,1.8465,1.85,1.852,1.8554,1.8572,1.8598,1.8624,1.8635,1.866,1.8682,1.8709,1.8723,1.8757,1.8765,1.8774,1.8777,1.8772,1.8771,1.8782,1.878,1.8785,1.8785,1.8785,1.8784,0,1.8402,1.8424,1.8467,1.8503,1.8512,1.8537,1.8567,1.8589,1.8607,1.864,1.8648,1.8675,1.8707,1.8727,1.8768,1.8777,1.8814,1.8818,1.8804,1.8806,1.8821,1.8819,1.8872,1.8879,1.8846,1.8846,1.8847,0,1.8425,1.8449,1.8488,1.8507,1.8525,1.8555,1.8575,1.8595,1.8616,1.8651,1.8669,1.8702,1.8729,1.8779,1.8801,1.8832,1.8835,1.8851,1.884,1.8834,1.8834,1.8831,1.8833,1.8853,1.8853,1.8853,1.8854,0,1.8462,1.8471,1.8501,1.8533,1.8557,1.8584,1.8611,1.8625,1.8649,1.8672,1.8705,1.8726,1.8767,1.8799,1.8831,1.8849,1.8855,1.8857,1.8863,1.8857,1.8848,1.8852,1.8808,1.8856,1.8856,1.8855,1.8855,1.8855,1.8484,1.8506,1.8536,1.8568,1.859,1.8615,1.8637,1.8657,1.8685,1.8721,1.873,1.8764,1.8792,1.8837,1.8855,1.8881,1.8878,1.8886,1.8888,1.889,1.8889,1.8845,1.8887,1.8887,1.8887,1.8887,1.8887,0,1.8521,1.854,1.857,1.8606,1.8631,1.8635,1.8665,1.8685,1.8715,1.8741,1.8767,1.8804,1.8835,1.8859,1.889,1.8906,1.891,1.8914,1.8912,1.8916,1.889,1.8882,1.891,1.891,1.891,1.891,1.891,1.891,1.8542,1.8579,1.8592,1.8639,1.8658,1.8692,1.8708,1.873,1.875,1.8791,1.8817,1.8833,1.8858,1.8891,1.8919,1.8925,1.8935,1.8938,1.8945,1.892,1.8918,1.8915,1.8907,1.8941,1.8941,1.8968,1.8968,1.8969]},{"header":{"parameterUnit":"m.s-1","parameterCategory":1,"la1":30.2991,"la2":30.254,"lo1":-89.0895,"lo2":-89.0444,"dy":0.0017,"dx":0.0017,"nx":28,"ny":28,"refTime":"2023-07-24T09:00:00:Z","depth":0,"parameterNumber":3,"parameterNumberName":"V-component_of_WINDS"},"data":[0,0,0,0,0,0,0,0,0,0,0,0,0,0,0,0,0,0,0,0,0,0,0,0,0,0,0,0,0,0,0,0,0,0,0,0,0,0,0,0,0,0,0,0,0,0,0,0,0,0,0,0,0,0,0,0,0,0,-1.0684,-1.0685,0,-1.0703,-1.0703,-1.0703,-1.0713,-1.0713,-1.0713,-1.0713,-1.0732,-1.0733,-1.0733,0,0,0,0,0,0,0,0,0,0,0,0,0,-1.0658,-1.0659,-1.0684,-1.0685,-1.0685,-1.0703,-1.0703,-1.0703,-1.0713,-1.0713,-1.0713,-1.0713,-1.0732,-1.0733,-1.0733,0,0,0,0,0,0,0,0,0,0,0,0,0,-1.0672,-1.0659,-1.0684,-1.0692,-1.0693,-1.0703,-1.0703,-1.0703,-1.0713,-1.0713,-1.0713,-1.0713,-1.0732,-1.0733,-1.0733,-1.0737,0,0,-1.0736,-1.0736,0,0,0,0,0,0,0,0,-1.0672,-1.0673,-1.0691,-1.0691,-1.0692,-1.0706,-1.0701,-1.0715,-1.0713,-1.0705,-1.0713,-1.0713,-1.0724,-1.0725,-1.0728,-1.0738,-1.0739,-1.0736,-1.0736,-1.0737,-1.0737,0,0,0,0,0,0,0,-1.0671,-1.0673,-1.0692,-1.0691,-1.0692,-1.0695,-1.0697,-1.0704,-1.0714,-1.0706,-1.0707,-1.0709,-1.0724,-1.0728,-1.0729,-1.0739,-1.0736,-1.0736,-1.0737,-1.0737,-1.0754,-1.0754,0,0,0,0,0,0,-1.0668,-1.0672,-1.0691,-1.0692,-1.0682,-1.0695,-1.0697,-1.0701,-1.0714,-1.0716,-1.0709,-1.0709,-1.0726,-1.0728,-1.073,-1.0735,-1.0737,-1.0737,-1.0738,-1.0754,-1.0754,-1.0754,0,0,0,0,0,0,-1.0668,-1.067,-1.069,-1.0682,-1.0685,-1.0695,-1.07,-1.0702,-1.0705,-1.0716,-1.0718,-1.0711,-1.0726,-1.0729,-1.0736,-1.0736,-1.0738,-1.0738,-1.0754,-1.0754,-1.0754,-1.0746,0,0,0,0,0,0,-1.0667,-1.067,-1.0671,-1.0682,-1.0685,-1.0696,-1.07,-1.0702,-1.0707,-1.0707,-1.0718,-1.072,-1.0727,-1.0734,-1.0736,-1.0737,-1.0739,-1.0754,-1.0754,-1.0754,-1.0747,-1.0746,-1.0746,0,0,0,0,0,-1.0666,-1.0668,-1.0671,-1.0673,-1.0687,-1.0696,-1.0698,-1.0705,-1.0707,-1.0708,-1.0715,-1.072,-1.0736,-1.0735,-1.0737,-1.0738,-1.0754,-1.0754,-1.0754,-1.0747,-1.0746,-1.0746,0,0,0,0,0,0,-1.0657,-1.067,-1.0673,-1.0679,-1.0686,-1.0697,-1.07,-1.0704,-1.0711,-1.0711,-1.072,-1.0723,-1.0729,-1.0734,-1.0733,-1.0743,-1.0745,-1.0746,-1.0739,-1.0739,-1.0738,-1.0737,-1.0739,0,0,0,0,0,-1.0656,-1.0661,-1.0672,-1.0676,-1.068,-1.0689,-1.0693,-1.0698,-1.0706,-1.0709,-1.0716,-1.0724,-1.0731,-1.0735,-1.0742,-1.0748,-1.075,-1.075,-1.0749,-1.0749,-1.0749,-1.0753,-1.0753,-1.0754,-1.0754,-1.0754,0,0,-1.0653,-1.0661,-1.0663,-1.0675,-1.0681,-1.0686,-1.0691,-1.0697,-1.0702,-1.071,-1.0717,-1.0723,-1.0732,-1.0738,-1.0742,-1.0743,-1.0749,-1.0749,-1.0748,-1.0749,-1.0753,-1.0753,-1.0752,-1.0754,-1.0754,-1.0754,0,0,-1.0651,-1.0657,-1.0661,-1.0668,-1.0677,-1.0683,-1.0684,-1.0695,-1.0699,-1.0706,-1.0713,-1.0718,-1.073,-1.0736,-1.0741,-1.0742,-1.0746,-1.0744,-1.0741,-1.0745,-1.0745,-1.0745,-1.0745,-1.0745,-1.0744,-1.0744,-1.0744,0,-1.0646,-1.0655,-1.0663,-1.0668,-1.0673,-1.0681,-1.0686,-1.0691,-1.0702,-1.0706,-1.0707,-1.0722,-1.0729,-1.0737,-1.0737,-1.0741,-1.0742,-1.0742,-1.0744,-1.0744,-1.0744,-1.0745,-1.0745,-1.0744,-1.0744,-1.0744,-1.0744,0,-1.0649,-1.0655,-1.0657,-1.0668,-1.0673,-1.0678,-1.0687,-1.0691,-1.0696,-1.0702,-1.071,-1.0718,-1.0727,-1.073,-1.0734,-1.0739,-1.0739,-1.0742,-1.0745,-1.0743,-1.0744,-1.0744,-1.0743,-1.0743,-1.0743,-1.0743,0,0,-1.0641,-1.0656,-1.0657,-1.0662,-1.0673,-1.0678,-1.0684,-1.0692,-1.0696,-1.0704,-1.0709,-1.0718,-1.0722,-1.0727,-1.0733,-1.0736,-1.0736,-1.0739,-1.0739,-1.0738,-1.0742,-1.0739,-1.0739,-1.074,-1.074,-1.074,-1.0741,0,-1.0641,-1.0651,-1.0658,-1.0666,-1.0671,-1.0679,-1.0684,-1.0692,-1.0698,-1.0704,-1.0711,-1.0718,-1.0721,-1.0725,-1.0728,-1.0735,-1.0737,-1.0736,-1.0745,-1.0745,-1.0742,-1.074,-1.0737,-1.0738,-1.0741,-1.0742,-1.0742,0,-1.0641,-1.0648,-1.0656,-1.0667,-1.067,-1.0674,-1.0683,-1.0689,-1.0698,-1.0702,-1.0708,-1.0714,-1.0721,-1.0723,-1.0732,-1.0731,-1.0735,-1.074,-1.074,-1.0741,-1.0743,-1.0741,-1.0738,-1.0738,-1.0742,-1.0742,-1.0742,0,-1.0635,-1.0647,-1.0653,-1.0657,-1.067,-1.0673,-1.0678,-1.0687,-1.0692,-1.07,-1.0703,-1.0712,-1.0716,-1.0723,-1.0731,-1.0732,-1.074,-1.0743,-1.0744,-1.0744,-1.0745,-1.0745,-1.0743,-1.0748,-1.0748,-1.0748,-1.0748,0,-1.0633,-1.0638,-1.065,-1.0654,-1.0659,-1.0668,-1.0674,-1.068,-1.0688,-1.0693,-1.0701,-1.0706,-1.0717,-1.0723,-1.073,-1.0737,-1.0739,-1.0743,-1.0744,-1.0742,-1.0741,-1.0745,-1.0745,-1.0748,-1.0748,-1.0748,-1.0748,0,-1.0627,-1.0635,-1.0642,-1.0654,-1.0657,-1.0661,-1.0671,-1.0675,-1.0682,-1.0689,-1.0691,-1.0702,-1.071,-1.0719,-1.073,-1.0735,-1.0741,-1.0744,-1.0738,-1.0739,-1.074,-1.0739,-1.074,-1.0741,-1.0745,-1.0745,-1.0745,0,-1.0625,-1.0628,-1.0641,-1.0645,-1.065,-1.0657,-1.0662,-1.0671,-1.0676,-1.0687,-1.069,-1.0699,-1.0706,-1.0719,-1.0728,-1.0736,-1.0739,-1.0739,-1.074,-1.0738,-1.0739,-1.0739,-1.0739,-1.0738,-1.0738,-1.0738,-1.0738,0,-1.0621,-1.0625,-1.0632,-1.0641,-1.0646,-1.0654,-1.0661,-1.0664,-1.0675,-1.068,-1.0689,-1.0694,-1.0706,-1.0715,-1.0724,-1.0731,-1.0736,-1.0737,-1.0738,-1.0735,-1.0732,-1.0734,-1.0737,-1.0737,-1.0737,-1.0737,-1.0737,-1.0737,-1.0617,-1.062,-1.063,-1.0637,-1.0644,-1.0651,-1.0656,-1.0663,-1.067,-1.068,-1.0685,-1.0694,-1.0703,-1.0717,-1.0723,-1.073,-1.0732,-1.0733,-1.0733,-1.0733,-1.0733,-1.0731,-1.0732,-1.0732,-1.0732,-1.0732,-1.0732,0,-1.0613,-1.062,-1.0627,-1.0637,-1.0643,-1.0648,-1.0657,-1.0661,-1.0669,-1.0677,-1.0684,-1.0694,-1.0703,-1.0712,-1.0722,-1.0725,-1.0728,-1.0728,-1.0727,-1.0729,-1.073,-1.0729,-1.0725,-1.0725,-1.0725,-1.0725,-1.0725,-1.0725,-1.0612,-1.0619,-1.0624,-1.0634,-1.0641,-1.0649,-1.0654,-1.066,-1.0667,-1.0678,-1.0685,-1.0691,-1.07,-1.071,-1.0719,-1.0721,-1.0725,-1.0723,-1.0727,-1.0728,-1.0729,-1.0729,-1.0728,-1.0724,-1.0724,-1.0724,-1.0724,-1.0724]}]]